Simultaneous Nadir Overpasses (SNOs) Predictions

Prediction of SNOs between TERRA and METOP-C Satellite Orbit:

Table of predicted SNOs for the next 14.0 days since TLE Epoch: 9/26/2020
Index Date (TERRA) Time (TERRA) Lat,Lon (TERRA) SZA (TERRA ) Date (METOP-C) Time (METOP-C) Lat,Lon (METOP-C) SZA (METOP-C ) Distance(km) Time Diff (sec)
1 09/26/2020 18:00:31 81.31, -42.69 85.98 09/26/2020 17:59:25 81.32, -42.66 85.96 0.57 66
2 09/26/2020 18:49:57 -81.33, 125.23 93.97 09/26/2020 18:50:05 -81.32, 125.19 93.97 0.91 8
3 09/29/2020 13:34:46 81.32, 23.85 87.11 09/29/2020 13:33:45 81.32, 23.96 87.10 1.80 61
4 09/29/2020 14:24:13 -81.32,-168.59 92.89 09/29/2020 14:24:26 -81.32,-168.54 92.87 1.08 13
5 10/02/2020 09:09:01 81.32, 90.36 88.24 10/02/2020 09:08:06 81.32, 90.17 88.18 3.30 55
6 10/02/2020 09:58:28 -81.32,-102.05 91.76 10/02/2020 09:58:46 -81.32,-101.88 91.73 2.85 18
7 10/05/2020 04:43:15 81.33, 156.85 89.35 10/05/2020 04:42:25 81.32, 156.77 89.31 1.51 50
8 10/05/2020 05:32:42 -81.33, -35.53 90.65 10/05/2020 05:33:06 -81.32, -35.62 90.65 1.56 24
9 10/08/2020 00:17:30 81.33,-136.69 90.44 10/08/2020 00:16:45 81.32,-136.63 90.42 1.22 45



Historial Predications of SNOs between TERRA and METOP-C
